Canby, MN

7:03 PM CDT on August 25, 2016 (GMT -0500)
Canby

Weather History for KCNB - October, 2013

Change the Weather History Date:

Saturday, October 19, 2013

  Actual Average (KMML) Record (KMML)
Temperature  
Mean Temperature 38 °F -  
Max Temperature 45 °F 57 °F 86 °F (2003)
Min Temperature 31 °F 33 °F 15 °F (1972)
Degree Days  
Heating Degree Days 27    
Moisture  
Dew Point 32 °F    
Average Humidity 76    
Maximum Humidity 96    
Minimum Humidity 48    
Precipitation  
Precipitation 0.00 in - - ()
Sea Level Pressure  
Sea Level Pressure 29.79 in    
Wind  
Wind Speed 10 mph (West)    
Max Wind Speed 20 mph    
Max Gust Speed 29 mph    
Visibility 10 miles    
Events      
Averages and records for this station are not official NWS values.
T = Trace of Precipitation, MM = Missing Value Source: NWS Daily Summary

Daily Weather History Graph

Daily Weather History Graph

Search for Another Location

Airport or City:

Trip Planner

Search our weather history database for the weather conditions in past years. The results will help you decide how hot, cold, wet, or windy it might be!

Date:

Astronomy

Oct. 19, 2013 Rise Set
Actual Time 7:45 AM CDT 6:33 PM CDT
Civil Twilight 7:16 AM CDT 7:02 PM CDT
Nautical Twilight 6:42 AM CDT 7:36 PM CDT
Astronomical Twilight 6:08 AM CDT 8:10 PM CDT
Moon 6:58 PM CDT (10/19) 8:27 AM CDT (10/19)
Length of Visible Light 11h 46m
Length of Day
10h 47m
Waxing Gibbous, 99% of the Moon is Illuminated
Oct 19
Waxing Gibbous
Oct 26
Last Quarter
Nov 3
New
Nov 9
First Quarter
Nov 17
Full

Hourly Weather History & Observations

Time (CDT) Temp. Windchill Dew Point Humidity Pressure Visibility Wind Dir Wind Speed Gust Speed Precip Events Conditions
12:14 AM 37.4 °F 30.8 °F 34.2 °F 88% 29.85 in 10.0 mi WSW 9.2 mph - N/A   Clear
12:34 AM 37.4 °F 30.8 °F 34.3 °F 89% 29.84 in 10.0 mi SW 9.2 mph - N/A   Clear
12:54 AM 37.4 °F 30.8 °F 34.2 °F 88% 29.83 in 10.0 mi SW 9.2 mph - N/A   Mostly Cloudy
1:14 AM 37.4 °F 30.3 °F 33.8 °F 87% 29.83 in 10.0 mi WSW 10.4 mph - N/A   Scattered Clouds
1:33 AM 37.0 °F 29.8 °F 33.4 °F 87% 29.82 in 10.0 mi WSW 10.4 mph - N/A   Clear
1:54 AM 36.9 °F 30.7 °F 33.3 °F 87% 29.81 in 10.0 mi WSW 8.1 mph - N/A   Clear
2:14 AM 37.0 °F 29.8 °F 33.8 °F 88% 29.80 in 10.0 mi WSW 10.4 mph - N/A   Scattered Clouds
2:33 AM 38.1 °F 31.2 °F 34.0 °F 85% 29.80 in 10.0 mi WSW 10.4 mph 17.3 mph N/A   Mostly Cloudy
2:54 AM 38.3 °F 31.9 °F 34.3 °F 86% 29.79 in 10.0 mi WSW 9.2 mph - N/A   Overcast
3:14 AM 38.5 °F 31.6 °F 34.7 °F 86% 29.78 in 10.0 mi WSW 10.4 mph 16.1 mph N/A   Overcast
3:34 AM 38.8 °F 31.6 °F 34.7 °F 85% 29.78 in 10.0 mi WSW 11.5 mph - N/A   Overcast
3:53 AM 38.7 °F 32.9 °F 34.7 °F 86% 29.77 in 10.0 mi WSW 8.1 mph - N/A   Overcast
4:14 AM 38.5 °F 32.7 °F 34.7 °F 86% 29.76 in 10.0 mi WSW 8.1 mph - N/A   Overcast
4:34 AM 38.7 °F 31.4 °F 34.5 °F 85% 29.75 in 10.0 mi WSW 11.5 mph - N/A   Overcast
4:54 AM 38.3 °F 30.5 °F 34.7 °F 87% 29.75 in 10.0 mi WSW 12.7 mph - N/A   Scattered Clouds
5:14 AM 38.1 °F 30.7 °F 34.7 °F 87% 29.74 in 10.0 mi WSW 11.5 mph - N/A   Scattered Clouds
5:33 AM 38.3 °F 31.9 °F 34.9 °F 87% 29.74 in 10.0 mi WSW 9.2 mph - N/A   Mostly Cloudy
5:54 AM 38.5 °F 32.7 °F 35.2 °F 88% 29.74 in 10.0 mi WSW 8.1 mph - N/A   Mostly Cloudy
6:14 AM 38.7 °F 31.8 °F 35.6 °F 89% 29.74 in 10.0 mi WSW 10.4 mph - N/A   Overcast
6:33 AM 39.4 °F 32.7 °F 36.0 °F 88% 29.74 in 10.0 mi West 10.4 mph - N/A   Overcast
6:54 AM 39.6 °F 31.7 °F 36.5 °F 89% 29.74 in 10.0 mi West 13.8 mph - N/A   Overcast
7:14 AM 39.7 °F 32.7 °F 36.7 °F 89% 29.74 in 10.0 mi West 11.5 mph 18.4 mph N/A   Overcast
7:34 AM 39.9 °F 32.5 °F 36.7 °F 88% 29.73 in 10.0 mi West 12.7 mph - N/A   Mostly Cloudy
7:54 AM 39.7 °F 32.3 °F 36.7 °F 89% 29.73 in 10.0 mi West 12.7 mph - N/A   Overcast
8:54 AM 40.5 °F 33.2 °F 37.9 °F 91% 29.75 in 10.0 mi West 12.7 mph 19.6 mph N/A   Light Drizzle
9:14 AM 40.5 °F 34.6 °F 38.3 °F 92% 29.75 in 10.0 mi West 9.2 mph - N/A   Overcast
9:33 AM 41.7 °F 35.6 °F 39.2 °F 91% 29.76 in 10.0 mi West 10.4 mph - N/A   Mostly Cloudy
9:54 AM 43.0 °F 36.4 °F 39.4 °F 87% 29.76 in 10.0 mi WNW 12.7 mph - N/A   Mostly Cloudy
10:14 AM 43.9 °F 37.5 °F 38.7 °F 82% 29.76 in 10.0 mi NW 12.7 mph 23.0 mph N/A   Mostly Cloudy
10:33 AM 43.9 °F 36.5 °F 37.8 °F 79% 29.76 in 10.0 mi NW 16.1 mph - N/A   Mostly Cloudy
10:54 AM 42.1 °F 33.6 °F 35.2 °F 77% 29.76 in 10.0 mi NNW 18.4 mph 25.3 mph N/A   Overcast
11:14 AM 42.3 °F 33.6 °F 33.4 °F 71% 29.77 in 10.0 mi NW 19.6 mph 23.0 mph N/A   Scattered Clouds
11:34 AM 43.2 °F 35.0 °F 32.7 °F 67% 29.77 in 10.0 mi NW 18.4 mph 24.2 mph N/A   Scattered Clouds
11:54 AM 41.4 °F 34.0 °F 30.0 °F 64% 29.78 in 10.0 mi NW 13.8 mph - N/A   Mostly Cloudy
12:14 PM 42.6 °F 35.6 °F 30.2 °F 61% 29.79 in 10.0 mi NNW 13.8 mph 23.0 mph N/A   Mostly Cloudy
12:34 PM 42.6 °F 34.6 °F 29.7 °F 60% 29.79 in 10.0 mi NW 17.3 mph 25.3 mph N/A   Scattered Clouds
12:54 PM 43.3 °F 35.2 °F 27.9 °F 54% 29.79 in 10.0 mi WNW 18.4 mph 28.8 mph N/A   Scattered Clouds
1:14 PM 43.9 °F 36.5 °F 28.0 °F 54% 29.79 in 10.0 mi NNW 16.1 mph 21.9 mph N/A   Scattered Clouds
1:34 PM 44.2 °F 38.0 °F 27.3 °F 51% 29.78 in 10.0 mi NNW 12.7 mph 20.7 mph N/A   Scattered Clouds
1:54 PM 44.2 °F 38.8 °F 27.0 °F 51% 29.78 in 10.0 mi NNW 10.4 mph 20.7 mph N/A   Scattered Clouds
2:13 PM 44.4 °F 36.9 °F 27.7 °F 52% 29.78 in 10.0 mi NW 17.3 mph 24.2 mph N/A   Scattered Clouds
2:34 PM 44.6 °F 36.6 °F 27.3 °F 51% 29.79 in 10.0 mi NW 19.6 mph 24.2 mph N/A   Clear
2:54 PM 45.0 °F 37.4 °F 26.6 °F 49% 29.79 in 10.0 mi NW 18.4 mph 27.6 mph N/A   Clear
3:14 PM 45.1 °F 37.6 °F 27.1 °F 49% 29.80 in 10.0 mi NNW 18.4 mph 23.0 mph N/A   Scattered Clouds
3:34 PM 45.0 °F 38.9 °F 26.4 °F 48% 29.80 in 10.0 mi NW 12.7 mph 25.3 mph N/A   Scattered Clouds
3:54 PM 45.0 °F 38.9 °F 27.0 °F 49% 29.80 in 10.0 mi NNW 12.7 mph 19.6 mph N/A   Clear
4:14 PM 44.8 °F 38.7 °F 25.9 °F 48% 29.80 in 10.0 mi NNW 12.7 mph - N/A   Clear
4:33 PM 45.3 °F 39.0 °F 27.0 °F 49% 29.80 in 10.0 mi WNW 13.8 mph 17.3 mph N/A   Clear
4:54 PM 45.1 °F 41.4 °F 27.1 °F 49% 29.80 in 10.0 mi NNW 6.9 mph - N/A   Clear
5:14 PM 44.8 °F 39.9 °F 26.6 °F 49% 29.81 in 10.0 mi NNW 9.2 mph - N/A   Clear
5:34 PM 44.4 °F 42.0 °F 27.5 °F 52% 29.81 in 10.0 mi WNW 4.6 mph - N/A   Clear
5:54 PM 43.0 °F 41.3 °F 27.3 °F 54% 29.81 in 10.0 mi NNW 3.5 mph - N/A   Clear
6:14 PM 41.9 °F - 27.5 °F 57% 29.81 in 10.0 mi Calm Calm - N/A   Clear
6:34 PM 41.0 °F - 27.1 °F 58% 29.81 in 10.0 mi Calm Calm - N/A   Clear
6:54 PM 39.4 °F - 27.3 °F 62% 29.82 in 10.0 mi Calm Calm - N/A   Clear
7:13 PM 37.8 °F - 29.1 °F 71% 29.82 in 10.0 mi Calm Calm - N/A   Clear
7:34 PM 34.5 °F - 30.0 °F 84% 29.82 in 10.0 mi Calm Calm - N/A   Clear
7:54 PM 34.0 °F - 30.6 °F 87% 29.82 in 10.0 mi Calm Calm - N/A   Clear
8:14 PM 32.2 °F - 28.8 °F 87% 29.82 in 10.0 mi Calm Calm - N/A   Clear
8:34 PM 32.2 °F - 30.2 °F 92% 29.82 in 10.0 mi Calm Calm - N/A   Clear
8:54 PM 32.0 °F - 30.6 °F 94% 29.81 in 10.0 mi Calm Calm - N/A   Clear
9:14 PM 32.2 °F - 30.4 °F 93% 29.81 in 10.0 mi Calm Calm - N/A   Clear
9:34 PM 32.0 °F - 30.7 °F 95% 29.80 in 10.0 mi Calm Calm - N/A   Clear
9:54 PM 31.8 °F - 30.2 °F 94% 29.80 in 10.0 mi Calm Calm - N/A   Scattered Clouds
10:14 PM 32.2 °F - 31.1 °F 96% 29.80 in 10.0 mi Calm Calm - N/A   Scattered Clouds
10:34 PM 33.8 °F 28.6 °F 30.2 °F 87% 29.79 in 10.0 mi SE 5.8 mph - N/A   Mostly Cloudy
10:54 PM 34.5 °F 29.4 °F 30.9 °F 87% 29.79 in 10.0 mi South 5.8 mph - N/A   Overcast
11:13 PM 36.5 °F 31.0 °F 29.8 °F 77% 29.78 in 10.0 mi SSE 6.9 mph - N/A   Overcast
11:34 PM 37.0 °F 33.3 °F 30.4 °F 77% 29.78 in 10.0 mi SSE 4.6 mph - N/A   Overcast
11:54 PM 36.9 °F 31.4 °F 31.1 °F 80% 29.76 in 10.0 mi SSE 6.9 mph - N/A   Overcast